Greenland, AR

1:53 PM CST on January 21, 2017 (GMT -0600)
Fayetteville

Weather History for KFYV - March, 2014

Change the Weather History Date:

Sunday, March 16, 2014

  Actual Average Record
Temperature  
Mean Temperature 43 °F 48 °F  
Max Temperature 55 °F 60 °F 78 °F (2012)
Min Temperature 30 °F 36 °F 18 °F (1988)
Degree Days  
Heating Degree Days 22 17  
Month to date heating degree days 381 305  
Since 1 July heating degree days 4101 3608  
Cooling Degree Days 0 0  
Month to date cooling degree days 0 0  
Year to date cooling degree days 0 0  
Moisture  
Dew Point 36 °F    
Average Humidity 93    
Maximum Humidity 100    
Minimum Humidity 85    
Precipitation  
Precipitation 2.15 in 0.13 in 2.15 in (2014)
Month to date precipitation 4.17 1.95  
Year to date precipitation 6.65 7.60  
Sea Level Pressure  
Sea Level Pressure 29.86 in    
Wind  
Wind Speed 10 mph (North)    
Max Wind Speed 26 mph    
Max Gust Speed 37 mph    
Visibility 4 miles    
Events Rain , Snow    
T = Trace of Precipitation, MM = Missing Value Source: NWS Daily Summary

Daily Weather History Graph

Daily Weather History Graph

Search for Another Location

Airport or City:

Trip Planner

Search our weather history database for the weather conditions in past years. The results will help you decide how hot, cold, wet, or windy it might be!

Date:

Astronomy

Mar. 16, 2014 Rise Set
Actual Time 7:25 AM CDT 7:25 PM CDT
Civil Twilight 7:00 AM CDT 7:50 PM CDT
Nautical Twilight 6:30 AM CDT 8:20 PM CDT
Astronomical Twilight 6:00 AM CDT 8:50 PM CDT
Moon 7:41 PM CDT (3/16) 7:10 AM CDT (3/16)
Length of Visible Light 12h 50m
Length of Day
11h 59m
Full, 100% of the Moon is Illuminated
Mar 16
Full
Mar 16
Full
Mar 23
Last Quarter
Mar 30
New
Apr 7
First Quarter

Hourly Weather History & Observations

Time (CDT) Temp. Windchill Dew Point Humidity Pressure Visibility Wind Dir Wind Speed Gust Speed Precip Events Conditions
12:53 AM 55.0 °F - 55.0 °F 100% 29.75 in 4.0 mi NNE 4.6 mph - 0.14 in Rain Rain
1:53 AM 54.0 °F - 54.0 °F 100% 29.71 in 4.0 mi NNE 5.8 mph - 0.12 in Rain Rain
2:01 AM 53.6 °F - 53.6 °F 100% 29.73 in 4.0 mi NE 5.8 mph - 0.01 in Rain Rain
2:23 AM 53.6 °F - 53.6 °F 100% 29.72 in 2.5 mi NNE 4.6 mph - 0.10 in Rain Heavy Rain
2:36 AM 53.6 °F - 53.6 °F 100% 29.72 in 3.0 mi NE 4.6 mph - 0.16 in Rain Rain
2:53 AM 53.1 °F - 53.1 °F 100% 29.69 in 1.8 mi NE 3.5 mph - 0.30 in Rain Heavy Rain
2:58 AM 53.6 °F - - N/A% 29.71 in 3.0 mi Variable 4.6 mph - 0.01 in Rain Rain
3:25 AM 53.6 °F - 53.6 °F 100% 29.70 in 3.0 mi North 4.6 mph - 0.16 in Rain Heavy Rain
3:33 AM 53.6 °F - - N/A% 29.69 in 2.5 mi North 5.8 mph - 0.21 in Rain Heavy Rain
3:42 AM 53.6 °F - - N/A% 29.69 in 4.0 mi North 6.9 mph - 0.24 in Rain Rain
3:53 AM 53.1 °F - - N/A% 29.66 in 4.0 mi NNE 8.1 mph - 0.29 in Rain Heavy Rain
4:36 AM 53.6 °F - - N/A% 29.67 in 3.0 mi North 6.9 mph - 0.20 in Rain Heavy Rain
4:45 AM 51.8 °F - - N/A% 29.66 in 2.5 mi North 8.1 mph - 0.26 in Rain Heavy Rain
4:53 AM 53.1 °F - - N/A% 29.65 in 4.0 mi North 6.9 mph - 0.28 in Rain Rain
5:25 AM 53.6 °F - - N/A% 29.66 in 4.0 mi North 5.8 mph - 0.10 in Rain Rain
5:46 AM 51.8 °F - - N/A% 29.66 in 4.0 mi North 6.9 mph - 0.16 in Rain Heavy Rain
5:53 AM 52.0 °F - - N/A% 29.65 in 5.0 mi North 10.4 mph - 0.19 in Rain Rain
6:53 AM 48.0 °F - - N/A% 29.66 in 4.0 mi North 24.2 mph 34.5 mph 0.18 in Rain Rain
7:53 AM 42.1 °F 34.5 °F - N/A% 29.72 in 5.0 mi North 15.0 mph 27.6 mph 0.15 in Rain Rain
8:53 AM 39.9 °F 32.5 °F - N/A% 29.78 in 6.0 mi NNE 12.7 mph 24.2 mph 0.21 in Rain Rain
9:53 AM 37.9 °F 30.9 °F - N/A% 29.83 in 5.0 mi North 10.4 mph 23.0 mph 0.18 in Rain Rain
10:53 AM 35.1 °F 25.2 °F - N/A% 29.88 in 7.0 mi North 16.1 mph 25.3 mph 0.09 in Rain Light Rain
11:19 AM 33.8 °F 24.3 °F - N/A% 29.89 in 0.8 mi North 13.8 mph 23.0 mph 0.05 in Snow Light Snow
11:53 AM 33.1 °F 23.9 °F - N/A% 29.92 in 0.5 mi North 12.7 mph 19.6 mph 0.10 in Snow Snow
12:53 PM 33.1 °F 23.9 °F - N/A% 29.93 in 0.8 mi North 12.7 mph 24.2 mph 0.05 in Snow Light Snow
1:53 PM 33.1 °F 24.4 °F - N/A% 29.93 in 1.0 mi North 11.5 mph 24.2 mph 0.02 in Snow Light Snow
2:53 PM 32.0 °F 20.8 °F - N/A% 29.95 in 1.8 mi North 17.3 mph 28.8 mph 0.00 in Snow Light Snow
3:53 PM 33.1 °F 24.4 °F - N/A% 29.97 in 1.8 mi North 11.5 mph 21.9 mph 0.00 in Snow Light Snow
4:00 PM 33.8 °F 26.4 °F - N/A% 29.97 in 4.0 mi NNE 9.2 mph 19.6 mph 0.00 in   Haze
4:53 PM 33.1 °F 26.1 °F 30.9 °F 92% 29.97 in 5.0 mi North 8.1 mph 19.6 mph 0.00 in   Overcast
5:06 PM 33.8 °F 25.8 °F 32.0 °F 93% 29.97 in 4.0 mi North 10.4 mph - N/A   Overcast
5:30 PM 33.8 °F 24.3 °F 30.2 °F 87% 29.96 in 6.0 mi North 13.8 mph 23.0 mph 0.00 in   Overcast
5:46 PM 33.8 °F 24.8 °F 30.2 °F 87% 29.97 in 2.5 mi North 12.7 mph 20.7 mph 0.00 in Snow Light Snow
5:53 PM 33.1 °F 24.9 °F 30.9 °F 92% 29.98 in 1.8 mi North 10.4 mph 20.7 mph 0.00 in Snow Light Snow
6:31 PM 32.0 °F 20.8 °F 30.2 °F 93% 29.98 in 2.5 mi North 17.3 mph 23.0 mph 0.00 in Snow Light Snow
6:53 PM 30.9 °F 22.2 °F 30.0 °F 96% 30.00 in 2.5 mi North 10.4 mph 17.3 mph 0.00 in Snow Light Snow
7:00 PM 30.2 °F 20.2 °F 30.2 °F 100% 29.99 in 2.5 mi North 12.7 mph 18.4 mph 0.00 in Snow Light Snow
7:08 PM 30.2 °F 21.9 °F 30.2 °F 100% 29.99 in 4.0 mi North 9.2 mph 19.6 mph 0.00 in Snow Light Snow
7:22 PM 30.2 °F 20.2 °F 28.4 °F 93% 29.99 in 7.0 mi North 12.7 mph 20.7 mph 0.00 in   Overcast
7:37 PM 30.2 °F 21.3 °F 28.4 °F 93% 30.00 in 10.0 mi North 10.4 mph 20.7 mph 0.00 in   Overcast
7:53 PM 30.9 °F 22.8 °F 28.9 °F 92% 30.03 in 10.0 mi North 9.2 mph 19.6 mph 0.00 in   Overcast
8:21 PM 30.2 °F 20.2 °F 28.4 °F 93% 30.02 in 10.0 mi North 12.7 mph - N/A   Overcast
8:53 PM 30.9 °F 21.7 °F 28.0 °F 89% 30.05 in 10.0 mi North 11.5 mph 21.9 mph N/A   Overcast
9:20 PM 30.2 °F 21.3 °F 28.4 °F 93% 30.03 in 10.0 mi North 10.4 mph 16.1 mph N/A   Overcast
9:53 PM 30.9 °F 25.2 °F 28.0 °F 89% 30.06 in 10.0 mi Variable 5.8 mph - N/A   Overcast
10:53 PM 30.9 °F 24.3 °F 28.0 °F 89% 30.09 in 10.0 mi North 6.9 mph - N/A   Overcast
11:53 PM 30.0 °F 23.2 °F 27.0 °F 88% 30.09 in 10.0 mi North 6.9 mph - N/A   Overcast